| time (UTC) | temp F | wind direction | speed MPH | gust MPH | rain 1hr in | rain 24hr in | rain mn in | humidity % | barometer mb |
| 20260505111521 | 58 | 2.0 | 4.0 | 0.00 | 0.01 | 0.00 | 69 | 1012.1 | |
| 20260505110517 | 58 | 3.0 | 4.0 | 0.00 | 0.01 | 0.00 | 70 | 1012.0 | |
| 20260505101518 | 57 | 3.0 | 6.0 | 0.00 | 0.01 | 0.00 | 72 | 1011.6 | |
| 20260505100518 | 56 | 2.0 | 4.0 | 0.00 | 0.01 | 0.00 | 73 | 1011.6 | |
| 20260505095518 | 56 | 2.0 | 4.0 | 0.00 | 0.01 | 0.00 | 73 | 1011.4 | |
| 20260505094551 | 57 | 2.0 | 4.0 | 0.00 | 0.01 | 0.00 | 72 | 1011.4 | |
| 20260505093521 | 57 | 2.0 | 4.0 | 0.00 | 0.01 | 0.00 | 71 | 1011.3 | |
| 20260505092525 | 58 | 2.0 | 4.0 | 0.00 | 0.01 | 0.00 | 71 | 1011.3 | |
| 20260505091519 | 58 | 2.0 | 4.0 | 0.00 | 0.01 | 0.00 | 71 | 1011.2 | |
| 20260505090519 | 58 | 2.0 | 4.0 | 0.00 | 0.01 | 0.00 | 71 | 1011.3 | |
| 20260505085517 | 58 | 2.0 | 5.0 | 0.00 | 0.01 | 0.00 | 71 | 1011.3 | |
| 20260505084531 | 58 | 2.0 | 5.0 | 0.00 | 0.01 | 0.00 | 70 | 1011.3 | |
| 20260505083520 | 59 | 2.0 | 5.0 | 0.00 | 0.01 | 0.00 | 69 | 1011.3 | |
| 20260505082522 | 59 | 3.0 | 5.0 | 0.00 | 0.01 | 0.00 | 69 | 1011.3 | |
| 20260505081517 | 59 | 3.0 | 6.0 | 0.00 | 0.01 | 0.00 | 70 | 1011.3 | |
| 20260505080517 | 59 | 3.0 | 6.0 | 0.00 | 0.01 | 0.00 | 70 | 1011.2 | |
| 20260505075525 | 59 | 3.0 | 6.0 | 0.00 | 0.01 | 0.00 | 70 | 1011.1 | |
| 20260505074520 | 59 | 3.0 | 5.0 | 0.00 | 0.01 | 0.00 | 69 | 1011.0 | |
| 20260505073517 | 59 | 3.0 | 5.0 | 0.00 | 0.01 | 0.00 | 69 | 1011.0 | |
| 20260505072518 | 59 | 3.0 | 5.0 | 0.00 | 0.01 | 0.00 | 69 | 1011.0 | |
| 20260505071557 | 59 | 2.0 | 4.0 | 0.00 | 0.01 | 0.00 | 68 | 1010.9 | |
| 20260505070519 | 60 | 2.0 | 5.0 | 0.00 | 0.01 | 0.00 | 68 | 1010.9 | |
| 20260505065519 | 60 | 3.0 | 4.0 | 0.00 | 0.01 | 0.00 | 67 | 1010.9 | |
| 20260505064520 | 60 | 3.0 | 5.0 | 0.00 | 0.01 | 0.00 | 67 | 1010.8 | |
| 20260505063517 | 59 | 2.0 | 5.0 | 0.00 | 0.01 | 0.00 | 69 | 1011.0 | |
| 20260505062518 | 59 | 2.0 | 5.0 | 0.00 | 0.01 | 0.00 | 69 | 1011.0 | |
| 20260505061542 | 59 | 2.0 | 6.0 | 0.00 | 0.01 | 0.00 | 68 | 1011.0 | |
| 20260505060523 | 59 | 2.0 | 7.0 | 0.00 | 0.01 | 0.00 | 69 | 1011.0 | |
| 20260505055517 | 59 | 2.0 | 4.0 | 0.00 | 0.01 | 0.00 | 70 | 1011.0 | |
| 20260505054539 | 60 | 0.0 | 2.0 | 0.00 | 0.01 | 0.00 | 68 | 1011.0 | |
| 20260505053518 | 61 | 2.0 | 3.0 | 0.00 | 0.01 | 0.00 | 66 | 1011.1 | |
| 20260505052518 | 62 | 1.0 | 3.0 | 0.00 | 0.01 | 0.00 | 64 | 1011.1 | |
| 20260505051518 | 63 | 2.0 | 4.0 | 0.00 | 0.01 | 0.00 | 62 | 1011.2 | |
| 20260505050538 | 63 | 2.0 | 6.0 | 0.00 | 0.01 | 0.00 | 61 | 1011.3 | |
| 20260505041518 | 63 | 3.0 | 6.0 | 0.00 | 0.01 | 0.00 | 59 | 1011.0 | |
| 20260505040518 | 62 | 2.0 | 5.0 | 0.00 | 0.01 | 0.00 | 60 | 1010.9 | |
| 20260505035514 | 63 | 3.0 | 4.0 | 0.00 | 0.01 | 0.01 | 60 | 1010.9 | |
| 20260505034514 | 63 | 2.0 | 4.0 | 0.00 | 0.01 | 0.01 | 58 | 1011.0 | |
| 20260505033517 | 63 | 2.0 | 5.0 | 0.00 | 0.01 | 0.01 | 58 | 1011.0 | |
| 20260505032517 | 63 | 2.0 | 4.0 | 0.00 | 0.01 | 0.01 | 57 | 1011.1 | |
| 20260505031517 | 63 | 2.0 | 5.0 | 0.00 | 0.01 | 0.01 | 57 | 1011.0 | |
| 20260505030517 | 62 | 2.0 | 4.0 | 0.00 | 0.01 | 0.01 | 58 | 1011.0 | |
| 20260505025517 | 62 | 2.0 | 4.0 | 0.00 | 0.01 | 0.01 | 58 | 1010.9 | |
| 20260505024536 | 63 | 2.0 | 4.0 | 0.00 | 0.01 | 0.01 | 57 | 1011.0 | |
| 20260505023539 | 64 | 1.0 | 2.0 | 0.00 | 0.01 | 0.01 | 55 | 1010.9 | |
| 20260505022518 | 64 | 1.0 | 2.0 | 0.00 | 0.01 | 0.01 | 55 | 1010.9 | |
| 20260505021524 | 64 | 1.0 | 2.0 | 0.00 | 0.01 | 0.01 | 55 | 1010.8 | |
| 20260505020519 | 66 | 1.0 | 2.0 | 0.00 | 0.01 | 0.01 | 52 | 1010.8 | |
| 20260505015539 | 66 | 2.0 | 3.0 | 0.00 | 0.01 | 0.01 | 51 | 1010.7 | |
| 20260505014524 | 67 | 2.0 | 3.0 | 0.00 | 0.01 | 0.01 | 51 | 1010.7 | |
| 20260505013522 | 67 | 2.0 | 3.0 | 0.00 | 0.01 | 0.01 | 50 | 1010.5 | |
| 20260505012524 | 68 | 2.0 | 4.0 | 0.00 | 0.01 | 0.01 | 49 | 1010.4 | |
| 20260505011517 | 68 | 3.0 | 4.0 | 0.00 | 0.01 | 0.01 | 49 | 1010.2 | |
| 20260505010523 | 69 | 3.0 | 5.0 | 0.00 | 0.01 | 0.01 | 47 | 1010.3 | |
| 20260505005524 | 69 | 2.0 | 4.0 | 0.00 | 0.01 | 0.01 | 47 | 1010.1 | |
| 20260505004523 | 70 | 2.0 | 3.0 | 0.00 | 0.01 | 0.01 | 45 | 1010.1 | |
| 20260505003517 | 70 | 2.0 | 3.0 | 0.00 | 0.01 | 0.01 | 45 | 1010.1 | |
| 20260505002517 | 70 | 3.0 | 5.0 | 0.00 | 0.01 | 0.01 | 44 | 1010.0 | |
| 20260505001523 | 71 | 2.0 | 4.0 | 0.00 | 0.01 | 0.01 | 44 | 1010.0 | |
| 20260505000518 | 71 | 2.0 | 4.0 | 0.00 | 0.01 | 0.01 | 44 | 1010.0 | |
| 20260504235517 | 71 | 3.0 | 5.0 | 0.00 | 0.01 | 0.01 | 43 | 1009.9 | |
| 20260504234518 | 71 | 2.0 | 5.0 | 0.00 | 0.01 | 0.01 | 43 | 1009.8 | |
| 20260504233518 | 72 | 2.0 | 4.0 | 0.00 | 0.01 | 0.01 | 43 | 1009.8 | |
| 20260504232525 | 72 | 2.0 | 4.0 | 0.00 | 0.01 | 0.01 | 42 | 1009.8 | |
| 20260504231519 | 73 | 3.0 | 6.0 | 0.00 | 0.01 | 0.01 | 41 | 1009.7 | |
| 20260504230518 | 73 | 4.0 | 5.0 | 0.00 | 0.01 | 0.01 | 41 | 1009.7 | |
| 20260504225522 | 73 | 3.0 | 6.0 | 0.00 | 0.01 | 0.01 | 40 | 1009.7 | |
| 20260504224520 | 74 | 5.0 | 9.0 | 0.00 | 0.01 | 0.01 | 39 | 1009.6 | |
| 20260504223522 | 74 | 2.0 | 4.0 | 0.00 | 0.01 | 0.01 | 40 | 1009.6 | |
| 20260504222544 | 74 | 3.0 | 7.0 | 0.00 | 0.01 | 0.01 | 39 | 1009.5 | |
| 20260504221541 | 73 | 3.0 | 8.0 | 0.00 | 0.01 | 0.01 | 40 | 1009.6 | |
| 20260504220517 | 73 | 3.0 | 7.0 | 0.00 | 0.01 | 0.01 | 40 | 1009.6 | |
| 20260504215517 | 73 | 2.0 | 5.0 | 0.00 | 0.01 | 0.01 | 39 | 1009.6 | |
| 20260504214429 | 73 | 5.0 | 11.0 | 0.00 | 0.01 | 0.01 | 39 | 1009.6 | |
| 20260504213543 | 74 | 3.0 | 8.0 | 0.00 | 0.01 | 0.01 | 39 | 1009.7 | |
| 20260504212523 | 75 | 3.0 | 7.0 | 0.00 | 0.01 | 0.01 | 39 | 1009.6 | |
| 20260504211518 | 75 | 2.0 | 4.0 | 0.00 | 0.01 | 0.01 | 39 | 1009.7 | |
| 20260504210518 | 74 | 3.0 | 6.0 | 0.00 | 0.01 | 0.01 | 39 | 1009.7 | |
| 20260504205518 | 74 | 3.0 | 6.0 | 0.00 | 0.01 | 0.01 | 41 | 1009.7 | |
| 20260504204431 | 75 | 2.0 | 8.0 | 0.00 | 0.01 | 0.01 | 40 | 1009.7 | |
| 20260504203521 | 74 | 3.0 | 7.0 | 0.00 | 0.01 | 0.01 | 40 | 1009.7 | |
| 20260504202521 | 74 | 2.0 | 6.0 | 0.00 | 0.01 | 0.01 | 40 | 1009.9 | |
| 20260504201540 | 74 | 3.0 | 10.0 | 0.00 | 0.01 | 0.01 | 41 | 1010.2 | |
| 20260504200519 | 74 | 5.0 | 9.0 | 0.00 | 0.01 | 0.01 | 40 | 1010.2 | |
| 20260504195519 | 73 | 3.0 | 8.0 | 0.00 | 0.01 | 0.01 | 41 | 1010.3 | |
| 20260504194536 | 73 | 4.0 | 9.0 | 0.00 | 0.01 | 0.01 | 41 | 1010.4 | |
| 20260504193520 | 73 | 4.0 | 7.0 | 0.00 | 0.01 | 0.01 | 40 | 1010.7 | |
| 20260504192520 | 73 | 3.0 | 5.0 | 0.00 | 0.01 | 0.01 | 41 | 1010.9 | |
| 20260504191517 | 72 | 4.0 | 8.0 | 0.00 | 0.01 | 0.01 | 42 | 1011.1 | |
| 20260504190519 | 71 | 5.0 | 9.0 | 0.00 | 0.01 | 0.01 | 43 | 1011.2 | |
| 20260504185517 | 71 | 6.0 | 9.0 | 0.00 | 0.01 | 0.01 | 43 | 1011.4 | |
| 20260504184525 | 71 | 4.0 | 6.0 | 0.00 | 0.01 | 0.01 | 43 | 1011.6 | |
| 20260504183521 | 71 | 5.0 | 8.0 | 0.00 | 0.01 | 0.01 | 42 | 1011.7 | |
| 20260504182517 | 71 | 5.0 | 10.0 | 0.00 | 0.01 | 0.01 | 42 | 1011.8 | |
| 20260504181517 | 71 | 3.0 | 6.0 | 0.00 | 0.01 | 0.01 | 43 | 1012.0 | |
| 20260504180518 | 70 | 3.0 | 6.0 | 0.00 | 0.01 | 0.01 | 43 | 1012.2 | |
| 20260504175525 | 69 | 3.0 | 6.0 | 0.00 | 0.01 | 0.01 | 44 | 1012.2 | |
| 20260504174524 | 70 | 4.0 | 6.0 | 0.00 | 0.01 | 0.01 | 43 | 1012.2 | |
| 20260504173522 | 70 | 6.0 | 11.0 | 0.00 | 0.01 | 0.01 | 42 | 1012.4 | |
| 20260504172524 | 69 | 6.0 | 10.0 | 0.00 | 0.01 | 0.01 | 42 | 1012.4 | |
| 20260504171519 | 69 | 5.0 | 9.0 | 0.00 | 0.01 | 0.01 | 43 | 1012.6 | |
| 20260504170516 | 69 | 6.0 | 9.0 | 0.00 | 0.01 | 0.01 | 43 | 1012.7 | |
| 20260504150520 | 65 | 5.0 | 9.0 | 0.00 | 0.00 | 0.00 | 44 | 1013.9 | |
| 20260504140522 | 62 | 4.0 | 8.0 | 0.00 | 0.00 | 0.00 | 49 | 1014.0 | |
| 20260504130517 | 57 | 3.0 | 6.0 | 0.00 | 0.00 | 0.00 | 57 | 1014.5 |